Weather History for Park Rapids, MN

Change the Weather History Date:

Wednesday, March 27, 2013

  Actual Average Record
Temperature  
Mean Temperature 19 °F -  
Max Temperature 37 °F 44 °F 60 °F (1968)
Min Temperature 1 °F 22 °F -13 °F (1955)
Degree Days  
Heating Degree Days 46    
Moisture  
Dew Point 11 °F    
Average Humidity 66    
Maximum Humidity 87    
Minimum Humidity 38    
Precipitation  
Precipitation 0.00 in - - ()
Sea Level Pressure  
Sea Level Pressure 30.36 in    
Wind  
Wind Speed 1 mph (SW)    
Max Wind Speed 7 mph    
Max Gust Speed -    
Visibility 10 miles    
Events      
Averages and records for this station are not official NWS values.
T = Trace of Precipitation, MM = Missing Value Source: NWS Daily Summary

Daily Weather History Graph

Daily Weather History Graph

Search for Another Location

Airport:

Trip Planner

Search our weather history database for the weather conditions in past years. The results will help you decide how hot, cold, wet, or windy it might be!

Date:

Astronomy

Mar. 27, 2013 Rise Set
Actual Time 7:08 AM CDT 7:43 PM CDT
Civil Twilight 6:38 AM CDT 8:13 PM CDT
Nautical Twilight 6:02 AM CDT 8:49 PM CDT
Astronomical Twilight 5:24 AM CDT 9:27 PM CDT
Moon 8:33 PM CDT (3/27) 6:57 AM CDT (3/27)
Length of Visible Light 13h 35m
Length of Day
12h 34m
Full, 100% of the Moon is Illuminated
Mar 27
Full
Apr 2
Last Quarter
Apr 10
New
Apr 18
First Quarter
Apr 25
Full

Hourly Weather History & Observations

Time (CDT) Temp. Windchill Dew Point Humidity Pressure Visibility Wind Dir Wind Speed Gust Speed Precip Events Conditions
12:53 AM 10.9 °F - 5.0 °F 77% 30.35 in 10.0 mi Calm Calm - N/A   Clear
1:53 AM 10.9 °F - 5.0 °F 77% 30.35 in 10.0 mi Calm Calm - N/A   Scattered Clouds
2:53 AM 14.0 °F - 9.0 °F 80% 30.34 in 10.0 mi Calm Calm - N/A   Clear
3:53 AM 9.0 °F - 5.0 °F 84% 30.34 in 10.0 mi Calm Calm - N/A   Clear
4:53 AM 3.9 °F - -0.0 °F 84% 30.35 in 10.0 mi Calm Calm - N/A   Clear
5:53 AM 5.0 °F - -0.9 °F 76% 30.35 in 10.0 mi Calm Calm - N/A   Clear
6:53 AM 1.0 °F - -4.0 °F 79% 30.36 in 10.0 mi Calm Calm - N/A   Clear
7:53 AM 5.0 °F - 1.9 °F 87% 30.38 in 10.0 mi Calm Calm - N/A   Clear
8:53 AM 10.0 °F - 5.0 °F 80% 30.38 in 9.0 mi Calm Calm - N/A   Clear
9:53 AM 12.9 °F - 7.0 °F 77% 30.38 in 10.0 mi Calm Calm - N/A   Clear
10:53 AM 25.0 °F - 16.0 °F 69% 30.37 in 10.0 mi Calm Calm - N/A   Clear
11:53 AM 34.0 °F - 16.0 °F 48% 30.37 in 10.0 mi Calm Calm - N/A   Clear
12:53 PM 36.0 °F 32.1 °F 15.1 °F 43% 30.36 in 10.0 mi Variable 4.6 mph - N/A   Clear
1:53 PM 36.0 °F 32.1 °F 15.1 °F 43% 30.36 in 10.0 mi SW 4.6 mph - N/A   Clear
2:53 PM 36.0 °F 33.3 °F 17.1 °F 46% 30.35 in 10.0 mi SSW 3.5 mph - N/A   Clear
3:53 PM 36.0 °F 30.3 °F 17.1 °F 46% 30.34 in 10.0 mi SSW 6.9 mph - N/A   Clear
4:53 PM 37.9 °F - 14.0 °F 38% 30.35 in 10.0 mi Calm Calm - N/A   Clear
5:53 PM 35.1 °F 32.2 °F 19.9 °F 54% 30.35 in 10.0 mi SW 3.5 mph - N/A   Clear
6:53 PM 33.1 °F 30.0 °F 19.0 °F 56% 30.35 in 10.0 mi SW 3.5 mph - N/A   Clear
7:53 PM 28.9 °F 25.2 °F 16.0 °F 58% 30.35 in 10.0 mi WSW 3.5 mph - N/A   Clear
8:53 PM 28.9 °F - 14.0 °F 54% 30.35 in 10.0 mi Calm Calm - N/A   Clear
9:53 PM 24.1 °F - 15.1 °F 69% 30.37 in 10.0 mi Calm Calm - N/A   Clear
10:53 PM 21.9 °F - 14.0 °F 72% 30.35 in 10.0 mi Calm Calm - N/A   Clear
11:53 PM 21.9 °F - 15.1 °F 75% 30.35 in 10.0 mi Calm Calm - N/A   Clear